Regional Weather Roundup
Issued by NWS

Home | Current Version | Previous Version | Graphics & Text | Print | Product List | Glossary On
Versions: 1 2 3 4 5 6 7 8 9 10 11 12 13 14 15 16 17 18 19 20 21 22 23 24 25 26 27 28 29 30 31 32 33 34 35 36 37 38 39 40 41 42 43 44 45 46 47 48 49 50
000
ASUS43 KIND 271909
RWRIN

WEATHER ROUNDUP FOR INDIANA
NATIONAL WEATHER SERVICE INDIANAPOLIS IN
300 PM EDT THU APR 27 2017

NOTE: "FAIR" INDICATES FEW OR NO CLOUDS BELOW 12,000 FEET WITH NO
SIGNIFICANT WEATHER AND/OR OBSTRUCTIONS TO VISIBILITY.

* - STATION DOES NOT REPORT WEATHER SUCH AS PRECIPITATION OR FOG.

+ - STATION NOT QUALITY CONTROLLED BY THE NATIONAL WEATHER SERVICE.
    USE DATA WITH CAUTION...ESPECIALLY DEWPOINT AND RELATIVE
    HUMIDITY OBSERVATIONS.

INZ001>003-010>013-019-020-272000-
NORTHWEST INDIANA

CITY           SKY/WX    TMP DP  RH WIND       PRES   REMARKS
GARY /AIRPORT/ CLOUDY    46  37  71 W14G28    29.66R
KNOX *+        CLOUDY    46  23  39 W17G23    29.67R
LA PORTE +     CLOUDY    47  40  75 W16G23    29.67R
MICHIGAN CITY+ CLOUDY    46  37  71 W10G22    29.67R
MONTICELLO +   CLOUDY    49  41  74 SW17G24   29.70R
RENSSELAER +   CLOUDY    48  41  76 W18G24    29.70R
VALPARAISO     CLOUDY    48  39  71 SW21G28   29.68R

$$

LMZ046-743>745-272000-
SOUTHERN LAKE MICHIGAN

STATION/POSITION TIME  TEMP    WIND        PRES    WAVE
                       AIR SEA DIR/SP/G            HT
                 (UTC) (F)     (DEG/KT/KT) (MB)    (FT)
BURNS HARBOR     1840   47     230/ 16/ 22 1004.7R
MICHIGAN CITY    1840   46     230/ 25/ 26   N/A
5NW MICH CITY    1900   45 48                N/A     5

$$

INZ004-005-014>016-021>024-272000-
NORTH CENTRAL INDIANA

CITY           SKY/WX    TMP DP  RH WIND       PRES   REMARKS
ELKHART        CLOUDY    50  41  71 SW12G17   29.65R
GOSHEN         CLOUDY    51  41  68 SW22G29   29.65R
LOGANSPORT +   CLOUDY    50  43  76 W21       29.71R
PERU/GRISSOM   CLOUDY    51  45  79 W21G29    29.69R
ROCHESTER +    PTSUNNY   52  41  66 SW17G25   29.69R
SOUTH BEND     CLOUDY    48  40  73 SW15G31   29.66R
WARSAW +       CLOUDY    48  41  76 W20G26    29.67R

$$

INZ006>009-017-018-025>027-272000-
NORTHEAST INDIANA

CITY           SKY/WX    TMP DP  RH WIND       PRES   REMARKS
ANGOLA *+      CLOUDY    55  45  67 W13       29.63R
AUBURN +       CLOUDY    54  43  66 SW14G20   29.66R
FORT WAYNE     CLOUDY    55  44  66 W20G28    29.67R
HUNTINGTON +   CLOUDY    52  44  73 W17G26    29.69R
KENDALLVILLE + CLOUDY    53  44  70 SW21G28   29.65R

$$

INZ028-029-035-036-043>045-051>053-272000-
WEST CENTRAL INDIANA

CITY           SKY/WX    TMP DP  RH WIND       PRES   REMARKS
CRAWFORDSVL +  CLOUDY    49  45  87 SW9       29.73R
GREENCASTLE +  CLOUDY    52  43  71 SW3       29.74R
LAFAYETTE      CLOUDY    50  44  80 W15G21    29.71R
TERRE HAUTE    CLOUDY    53  45  74 SW13      29.75R

$$

INZ030>032-037>040-046>048-054>057-064-065-272000-
CENTRAL INDIANA

CITY           SKY/WX    TMP DP  RH WIND       PRES   REMARKS
CP ATTERBURY + CLOUDY    57  45  62 W17       29.74R
FRANKFORT +    CLOUDY    54  45  73 W16G26    29.73R
GREENWOOD *+   CLOUDY    56  44  63 W14G20    29.74R
INDIANAPOLIS   CLOUDY    55  44  66 SW16      29.73R
-EAGLE CREEK   CLOUDY    54  44  69 W13G18    29.72R
KOKOMO +       CLOUDY    51  44  77 W20       29.71R
MARION +       CLOUDY    52  45  76 W21       29.71R HAZE
MT COMFORT *+  CLOUDY    55  45  67 W16       29.72R
SHELBYVILLE    CLOUDY    61  44  53 W17       29.71R
ZIONSVILLE +   CLOUDY    51  44  77 W13G21    29.73R

$$

INZ033-034-041-042-049-050-058-059-272000-
EAST CENTRAL INDIANA

CITY           SKY/WX    TMP DP  RH WIND       PRES   REMARKS
MUNCIE         CLOUDY    56  44  64 W20G28    29.70R
RICHMOND +     PTSUNNY   61  50  67 SW21G28   29.71R

$$

INZ060-061-067>069-081>083-085>088-272000-
SOUTHWEST INDIANA

CITY           SKY/WX    TMP DP  RH WIND       PRES   REMARKS
EVANSVILLE     CLOUDY    58  47  66 SW14      29.80R
HUNTINGBURG *+ CLOUDY    58  48  69 SW14      29.79R
WASHINGTON +   CLOUDY    56  46  67 W13       29.77S

$$

INZ062-063-066-070>080-084-089>092-272000-
SOUTH CENTRAL AND SOUTHEAST INDIANA

CITY           SKY/WX    TMP DP  RH WIND       PRES   REMARKS
BEDFORD +      CLOUDY    55  46  71 SW15G21   29.76
BLOOMINGTON    CLOUDY    54  44  69 W12       29.75R
MADISON *+     CLOUDY    59  46  63 W14G20    29.78R
NORTH VERNON + CLOUDY    55  48  76 SW12G17   29.75R

$$





USA.gov is the U.S. government's official web portal to all federal, state and local government web resources and services.